Location: Avon
(37.7514°N, 90.2235°W)
Time: 18:55:06
(UTC+00:00)

A-11 Canister half - Pass Details

Date: 09 November 2025
Orbit: 1526 x 1681 km, 47.3° (Epoch: 06 December)

Event Time Altitude Azimuth Distance (km) Brightness Sun altitude
Rises 23:33:47 0° 201° (SSW) 4,896 12.2 -8.3°
Reaches altitude 10° 23:37:18 10° 192° (SSW) 3,895 11.5 -9.0°
Maximum altitude 23:46:00 36° 131° (SE) 2,387 9.7 -10.6°
Enters shadow 23:53:11 14° 74° (ENE) 3,468 10.2 -12.0°
